Location: Beugnon
(47.6222°N, 3.7850°E)
Time: 06:32:26
(UTC+00:00)

Cosmos 1023 Rocket - Pass Details

Date: 09 April 2020
Orbit: 736 x 772 km, 74.1° (Epoch: 02 June)

Event Time Altitude Azimuth Distance (km) Brightness Sun altitude
Rises 19:21:24 0° 190° (S) 3,198 7.6 -9.6°
Reaches altitude 10° 19:23:47 10° 187° (S) 2,272 6.8 -10.0°
Maximum altitude 19:28:51 61° 108° (ESE) 849 4.5 -10.7°
Drops below altitude 10° 19:33:54 10° 29° (NNE) 2,266 6.9 -11.5°
Sets 19:36:16 0° 26° (NNE) 3,190 7.7 -11.9°
